Regional Weather Roundup
Issued by NWS Binghamton, NY

Home | Current Version | Previous Version | Text Only | Print | Product List | Glossary On
Versions: 1 2 3 4 5 6 7 8 9 10 11 12 13 14 15 16 17 18 19 20 21 22 23 24 25 26 27 28
000
ASUS41 KBGM 192310
RWRBGM
RWRBGM
BINGHAMTON REGIONAL WEATHER ROUNDUP
NATIONAL WEATHER SERVICE BINGHAMTON NY
700 PM EDT SAT APR 19 2014

Note: "fair" indicates few or no clouds below 12,000 feet with no
significant weather and/or obstructions to visibility.

* = Station(s) that does not report precipitation, such as rain,
snow, etc, also no thunder or fog.

!NYZ009-015>018-022>025-036-037-044>046-055>057-062-200000
...CENTRAL NEW YORK...

CITY           SKY/WX    TMP DP  RH WIND       PRES   REMARKS
BINGHAMTON     PTCLDY    48  25  40 N13       30.33R
CORTLAND       FAIR      48  30  49 N5        30.37S
DANSVILLE      CLEAR     51  27  39 NW15      30.38F
ELMIRA         PTCLDY    49  24  37 N9        30.36S
ITHACA         CLEAR     48  27  44 N8        30.37S
HAMILTON       CLEAR     50  28  43 N5        30.36
MONTICELLO     PTCLDY    52  18  25 NW10      30.31R
NORWICH        CLEAR     48  27  43 N8        30.35S
ONEONTA        CLEAR     46  25  42 N5        30.33R
PENN YAN       CLEAR     48  26  42 N9        30.38F
ROME           CLEAR     51  23  33 N7        30.38R
SIDNEY         CLEAR     50  27  40 N8        30.35R
SYRACUSE       PTCLDY    50  29  44 N9        30.40R
$$

!PAZ038>040-043-044-047-048-072-200000
...NORTHEAST PENNSYLVANIA...

CITY           SKY/WX    TMP DP  RH WIND       PRES   REMARKS
SCRANTON       PTCLDY    56  20  24 N9G21     30.30R
$$
&&
KEY
WCI = WIND CHILL INDEX
VSB = VISIBILITY
HX  = HEAT INDEX
$$



USA.gov is the U.S. government's official web portal to all federal, state and local government web resources and services.